This is the latest recevied weather packets stored in our database for station/object KE4EST. If no packets are shown the sender has not sent any weather packets the latest 10 day(s).
| Time | Temp. | Humidity | Pressure | Rain* | Wind** | Luminosity | Snow |
|---|---|---|---|---|---|---|---|
| 1777464471 | 15° C | 99% | 1014.7 hPa | 0 mm | - | 36 W/m² | - |
| 1777464167 | 15° C | 99% | 1014.9 hPa | 0 mm | - | 35 W/m² | - |
| 1777463866 | 15° C | 99% | 1014.7 hPa | 0 mm | - | 35 W/m² | - |
| 1777463562 | 15° C | 99% | 1014.8 hPa | 0 mm | - | 31 W/m² | - |
| 1777463257 | 15° C | 99% | 1014.7 hPa | 0 mm | - | 26 W/m² | - |
| 1777462954 | 15° C | 99% | 1014.8 hPa | 0 mm | - | 22 W/m² | - |
| 1777462650 | 15° C | 99% | 1014.7 hPa | 0 mm | - | 22 W/m² | - |
| 1777462345 | 15° C | 99% | 1014.6 hPa | 0 mm | - | 19 W/m² | - |
| 1777462041 | 15° C | 99% | 1014.4 hPa | 0 mm | - | 14 W/m² | - |
| 1777461739 | 15° C | 99% | 1014.6 hPa | 0 mm | - | 12 W/m² | - |
| 1777461434 | 15° C | 99% | 1014.5 hPa | 0 mm | - | 9 W/m² | - |
| 1777461130 | 15° C | 99% | 1014.5 hPa | 0 mm | - | 7 W/m² | - |
| 1777460825 | 15° C | 99% | 1014.2 hPa | 0 mm | - | 4 W/m² | - |
| 1777460521 | 15° C | 99% | 1014.1 hPa | 0 mm | - | 3 W/m² | - |
| 1777460217 | 15° C | 99% | 1014.1 hPa | 0 mm | - | 1 W/m² | - |
| 1777459914 | 15° C | 99% | 1014.1 hPa | 0 mm | - | 1 W/m² | - |
| 1777459611 | 15° C | 99% | 1013.9 hPa | 0 mm | - | 1 W/m² | - |
| 1777459308 | 15° C | 99% | 1014.1 hPa | 0 mm | - | 0 W/m² | - |
| 1777459006 | 15° C | 99% | 1014.3 hPa | 0 mm | - | 0 W/m² | - |
| 1777458703 | 15° C | 99% | 1014.3 hPa | 0 mm | - | 0 W/m² | - |
| 1777458399 | 15° C | 99% | 1014.5 hPa | 0 mm | - | 0 W/m² | - |
| 1777458095 | 15.56° C | 99% | 1014.5 hPa | 0 mm | - | 0 W/m² | - |
| 1777457786 | 15.56° C | 99% | 1014.2 hPa | 0 mm | - | 0 W/m² | - |
| 1777457485 | 15.56° C | 99% | 1014.2 hPa | 0 mm | - | 0 W/m² | - |
| 1777457181 | 15.56° C | 99% | 1014.3 hPa | 0 mm | - | 0 W/m² | - |
* Rain latest hour (hover to see other rain measurements)
** Current wind speed in m/s (hover to see current wind gust speed)